| time (UTC) | temp F | wind direction | speed MPH | gust MPH | rain 1hr in | rain 24hr in | rain mn in | humidity % | barometer mb |
| 20260505124549 | 59 | 0 | 0.0 | 4.0 | 0.02 | 0.85 | 0.85 | 96 | 1006.2 |
| 20260505123043 | 59 | 0 | 0.0 | 3.0 | 0.01 | 0.84 | 0.84 | 96 | 1006.3 |
| 20260505121549 | 59 | 0 | 0.0 | 3.0 | 0.01 | 0.84 | 0.84 | 96 | 1005.8 |
| 20260505120059 | 59 | 0 | 0.0 | 3.0 | 0.00 | 0.83 | 0.83 | 96 | 1005.8 |
| 20260505114543 | 60 | 0 | 0.0 | 2.0 | 0.01 | 0.83 | 0.83 | 96 | 1005.4 |
| 20260505113049 | 60 | 68 | 0.0 | 3.0 | 0.01 | 0.83 | 0.83 | 96 | 1005.3 |
| 20260505111547 | 60 | 63 | 0.0 | 3.0 | 0.02 | 0.83 | 0.83 | 96 | 1005.1 |
| 20260505101546 | 60 | 124 | 0.0 | 3.0 | 0.01 | 0.81 | 0.81 | 96 | 1005.0 |
| 20260505100039 | 60 | 139 | 0.0 | 4.0 | 0.04 | 0.81 | 0.81 | 96 | 1005.1 |
| 20260505094545 | 60 | 0 | 0.0 | 2.0 | 0.06 | 0.81 | 0.81 | 96 | 1005.3 |
| 20260505093050 | 60 | 0 | 0.0 | 1.0 | 0.08 | 0.81 | 0.81 | 96 | 1005.7 |
| 20260505091547 | 60 | 0 | 0.0 | 1.0 | 0.11 | 0.80 | 0.80 | 96 | 1005.8 |
| 20260505090047 | 60 | 153 | 0.0 | 6.0 | 0.22 | 0.77 | 0.77 | 96 | 1005.6 |
| 20260505084553 | 60 | 239 | 0.0 | 4.0 | 0.29 | 0.75 | 0.75 | 96 | 1005.5 |
| 20260505083051 | 60 | 212 | 1.0 | 4.0 | 0.34 | 0.73 | 0.73 | 95 | 1005.4 |
| 20260505081549 | 60 | 0 | 0.0 | 2.0 | 0.34 | 0.69 | 0.69 | 95 | 1006.1 |
| 20260505080043 | 60 | 0 | 0.0 | 3.0 | 0.24 | 0.55 | 0.55 | 95 | 1007.1 |
| 20260505074539 | 60 | 191 | 0.0 | 2.0 | 0.24 | 0.46 | 0.46 | 94 | 1005.6 |
| 20260505073049 | 60 | 0 | 0.0 | 1.0 | 0.30 | 0.39 | 0.39 | 94 | 1006.1 |
| 20260505071545 | 60 | 0 | 0.0 | 1.0 | 0.30 | 0.35 | 0.35 | 93 | 1007.8 |
| 20260505070047 | 61 | 0 | 0.0 | 1.0 | 0.27 | 0.30 | 0.30 | 92 | 1007.9 |
| 20260505064540 | 61 | 0 | 0.0 | 2.0 | 0.21 | 0.22 | 0.22 | 91 | 1007.9 |
| 20260505063047 | 62 | 0 | 0.0 | 1.0 | 0.09 | 0.09 | 0.09 | 88 | 1007.3 |
| 20260505061546 | 62 | 0 | 0.0 | 1.0 | 0.05 | 0.05 | 0.05 | 85 | 1006.3 |
| 20260505060051 | 63 | 0 | 0.0 | 4.0 | 0.03 | 0.03 | 0.03 | 82 | 1005.9 |
| 20260505054549 | 65 | 182 | 0.0 | 8.0 | 0.01 | 0.01 | 0.01 | 78 | 1005.5 |
| 20260505053111 | 66 | 121 | 1.0 | 7.0 | 0.00 | 0.00 | 0.00 | 75 | 1005.8 |
| 20260505051549 | 66 | 160 | 0.0 | 5.0 | 0.00 | 0.00 | 0.00 | 73 | 1006.0 |
| 20260505041545 | 67 | 0 | 0.0 | 4.0 | 0.00 | 0.00 | 0.00 | 72 | 1006.0 |
| 20260505040051 | 66 | 0 | 0.0 | 4.0 | 0.00 | 0.00 | 0.00 | 72 | 1006.0 |
| 20260505034601 | 66 | 0 | 0.0 | 3.0 | 0.00 | 0.00 | 0.00 | 73 | 1006.6 |
| 20260505033052 | 66 | 98 | 0.0 | 3.0 | 0.00 | 0.00 | 0.00 | 73 | 1006.7 |
| 20260505031545 | 66 | 0 | 0.0 | 4.0 | 0.00 | 0.00 | 0.00 | 72 | 1006.8 |
| 20260505030046 | 67 | 0 | 0.0 | 3.0 | 0.00 | 0.00 | 0.00 | 71 | 1006.7 |
| 20260505024549 | 67 | 190 | 1.0 | 4.0 | 0.00 | 0.00 | 0.00 | 71 | 1006.6 |
| 20260505023050 | 67 | 0 | 0.0 | 3.0 | 0.00 | 0.00 | 0.00 | 71 | 1006.4 |
| 20260505021544 | 67 | 141 | 0.0 | 4.0 | 0.00 | 0.00 | 0.00 | 70 | 1006.2 |
| 20260505020045 | 67 | 0 | 0.0 | 3.0 | 0.00 | 0.00 | 0.00 | 70 | 1006.1 |
| 20260505014551 | 68 | 0 | 0.0 | 1.0 | 0.00 | 0.00 | 0.00 | 70 | 1006.0 |
| 20260505013105 | 69 | 0 | 0.0 | 0.0 | 0.00 | 0.00 | 0.00 | 68 | 1006.1 |
| 20260505011558 | 70 | 0 | 0.0 | 1.0 | 0.00 | 0.00 | 0.00 | 66 | 1006.0 |
| 20260505010039 | 71 | 0 | 0.0 | 3.0 | 0.00 | 0.00 | 0.00 | 65 | 1005.8 |
| 20260505004547 | 71 | 162 | 0.0 | 3.0 | 0.00 | 0.00 | 0.00 | 63 | 1005.8 |
| 20260505003052 | 72 | 4 | 0.0 | 6.0 | 0.00 | 0.00 | 0.00 | 62 | 1005.7 |
| 20260505001558 | 73 | 0 | 3.0 | 10.0 | 0.00 | 0.00 | 0.00 | 60 | 1005.7 |
| 20260505000100 | 74 | 11 | 1.0 | 9.0 | 0.00 | 0.00 | 0.00 | 59 | 1005.6 |
| 20260504234540 | 75 | 194 | 2.0 | 8.0 | 0.00 | 0.00 | 0.00 | 58 | 1005.6 |
| 20260504233102 | 76 | 235 | 2.0 | 9.0 | 0.00 | 0.00 | 0.00 | 56 | 1005.6 |
| 20260504231546 | 76 | 179 | 1.0 | 8.0 | 0.00 | 0.00 | 0.00 | 56 | 1005.5 |
| 20260504230046 | 77 | 156 | 1.0 | 6.0 | 0.00 | 0.00 | 0.00 | 54 | 1005.5 |
| 20260504224544 | 77 | 174 | 2.0 | 11.0 | 0.00 | 0.00 | 0.00 | 54 | 1005.4 |
| 20260504223044 | 78 | 157 | 1.0 | 9.0 | 0.00 | 0.00 | 0.00 | 55 | 1005.3 |
| 20260504221539 | 78 | 146 | 0.0 | 11.0 | 0.00 | 0.00 | 0.00 | 54 | 1005.4 |
| 20260504220050 | 79 | 126 | 2.0 | 8.0 | 0.00 | 0.00 | 0.00 | 52 | 1005.4 |
| 20260504214542 | 79 | 0 | 3.0 | 8.0 | 0.00 | 0.00 | 0.00 | 51 | 1005.5 |
| 20260504213049 | 80 | 149 | 4.0 | 12.0 | 0.00 | 0.00 | 0.00 | 51 | 1005.4 |
| 20260504211543 | 81 | 122 | 2.0 | 8.0 | 0.00 | 0.00 | 0.00 | 51 | 1005.8 |
| 20260504210043 | 81 | 192 | 1.0 | 7.0 | 0.00 | 0.00 | 0.00 | 53 | 1005.9 |
| 20260504204547 | 81 | 131 | 1.0 | 8.0 | 0.00 | 0.00 | 0.00 | 52 | 1006.1 |
| 20260504203055 | 81 | 128 | 2.0 | 10.0 | 0.00 | 0.00 | 0.00 | 50 | 1006.3 |
| 20260504201546 | 81 | 30 | 1.0 | 10.0 | 0.00 | 0.00 | 0.00 | 51 | 1006.5 |
| 20260504200045 | 82 | 89 | 2.0 | 11.0 | 0.00 | 0.00 | 0.00 | 51 | 1006.7 |
| 20260504194548 | 81 | 63 | 1.0 | 9.0 | 0.00 | 0.00 | 0.00 | 52 | 1007.0 |
| 20260504193043 | 81 | 236 | 2.0 | 9.0 | 0.00 | 0.00 | 0.00 | 50 | 1007.1 |
| 20260504191606 | 80 | 200 | 3.0 | 14.0 | 0.00 | 0.00 | 0.00 | 50 | 1007.0 |
| 20260504190041 | 80 | 215 | 3.0 | 15.0 | 0.00 | 0.00 | 0.00 | 54 | 1006.9 |
| 20260504184539 | 80 | 104 | 4.0 | 12.0 | 0.00 | 0.00 | 0.00 | 51 | 1007.1 |
| 20260504183046 | 80 | 218 | 2.0 | 10.0 | 0.00 | 0.00 | 0.00 | 52 | 1007.2 |
| 20260504181551 | 79 | 156 | 2.0 | 11.0 | 0.00 | 0.00 | 0.00 | 52 | 1007.2 |
| 20260504180044 | 79 | 94 | 2.0 | 11.0 | 0.00 | 0.00 | 0.00 | 52 | 1007.4 |
| 20260504174540 | 79 | 270 | 4.0 | 11.0 | 0.00 | 0.00 | 0.00 | 52 | 1007.5 |
| 20260504173038 | 79 | 22 | 1.0 | 12.0 | 0.00 | 0.00 | 0.00 | 52 | 1007.8 |
| 20260504171546 | 78 | 137 | 3.0 | 11.0 | 0.00 | 0.00 | 0.00 | 52 | 1007.7 |